DAL2426 KBOS-KLGA

Flight info

Callsign DAL2426
Flight time 0h 39m
Altitude 16000
Route PATSS7 PATSS DCT NELIE VADDR1
Aircraft A321/M-SDE3FGHIRWY/LB1

Departure

Time 2026-05-05 09:35
Airport Boston Logan International Airport (KBOS)

Arrival

Time 2026-05-05 10:15
Airport LaGuardia Airport (KLGA)
Time Latitude Longitude Altitude Speed Heading
2026-05-05 09:06 42.36330 -71.02122 26 ft 0 kts 17°
2026-05-05 09:24 42.36319 -71.02127 30 ft 4 kts 17°
2026-05-05 09:24 42.36296 -71.02136 29 ft 3 kts 18°
2026-05-05 09:25 42.36280 -71.02152 30 ft 4 kts 89°
2026-05-05 09:25 42.36286 -71.02186 25 ft 4 kts 118°
2026-05-05 09:25 42.36300 -71.02216 28 ft 4 kts 122°
2026-05-05 09:25 42.36312 -71.02242 27 ft 2 kts 122°
2026-05-05 09:26 42.36323 -71.02266 31 ft 1 kts 122°
2026-05-05 09:26 42.36323 -71.02267 26 ft 0 kts 122°
2026-05-05 09:28 42.36318 -71.02256 30 ft 7 kts 123°
2026-05-05 09:28 42.36228 -71.02254 26 ft 17 kts 201°
2026-05-05 09:29 42.36141 -71.02275 27 ft 14 kts 160°
2026-05-05 09:29 42.36056 -71.02129 28 ft 23 kts 121°
2026-05-05 09:29 42.35975 -71.01947 28 ft 19 kts 119°
2026-05-05 09:29 42.35922 -71.01806 28 ft 15 kts 111°
2026-05-05 09:30 42.35897 -71.01668 27 ft 15 kts 100°
2026-05-05 09:30 42.35912 -71.01545 28 ft 13 kts 39°
2026-05-05 09:30 42.36003 -71.01495 29 ft 18 kts 19°
2026-05-05 09:30 42.36159 -71.01420 28 ft 29 kts 19°
2026-05-05 09:31 42.36345 -71.01331 27 ft 24 kts 21°
2026-05-05 09:31 42.36499 -71.01256 26 ft 24 kts 19°
2026-05-05 09:31 42.36618 -71.01198 28 ft 17 kts 20°
2026-05-05 09:31 42.36724 -71.01149 28 ft 16 kts 17°
2026-05-05 09:32 42.36812 -71.01177 26 ft 10 kts 318°
2026-05-05 09:32 42.36868 -71.01225 31 ft 13 kts
2026-05-05 09:32 42.36967 -71.01130 28 ft 20 kts 41°
2026-05-05 09:32 42.37121 -71.01025 28 ft 28 kts 26°
2026-05-05 09:33 42.37288 -71.00916 28 ft 28 kts 24°
2026-05-05 09:33 42.37485 -71.00819 30 ft 31 kts 19°
2026-05-05 09:33 42.37640 -71.00744 27 ft 23 kts 20°
2026-05-05 09:33 42.37773 -71.00680 27 ft 14 kts 20°
2026-05-05 09:34 42.37830 -71.00638 27 ft 8 kts 42°
2026-05-05 09:34 42.37834 -71.00578 26 ft 6 kts 97°
2026-05-05 09:34 42.37816 -71.00515 28 ft 11 kts 130°
2026-05-05 09:34 42.37742 -71.00498 27 ft 13 kts 199°
2026-05-05 09:35 42.37511 -71.00605 27 ft 70 kts 200°
2026-05-05 09:35 42.35902 -71.01401 487 ft 141 kts 201°
2026-05-05 09:35 42.35009 -71.01847 1286 ft 136 kts 193°
2026-05-05 09:36 42.34055 -71.01609 1894 ft 155 kts 163°
2026-05-05 09:36 42.33208 -71.00457 2186 ft 192 kts 134°
2026-05-05 09:36 42.32406 -70.98888 2468 ft 211 kts 135°
2026-05-05 09:36 42.31610 -70.97098 2816 ft 236 kts 117°
2026-05-05 09:37 42.31285 -70.94807 3322 ft 265 kts 92°
2026-05-05 09:37 42.31585 -70.92214 3780 ft 291 kts 81°
2026-05-05 09:37 42.31997 -70.89497 4587 ft 298 kts 80°
2026-05-05 09:37 42.32403 -70.86781 5509 ft 300 kts 80°
2026-05-05 09:38 42.32775 -70.83999 6449 ft 302 kts 86°
2026-05-05 09:38 42.32740 -70.81171 7316 ft 302 kts 102°
2026-05-05 09:38 42.32235 -70.78425 8191 ft 302 kts 113°
2026-05-05 09:38 42.31362 -70.75865 9062 ft 299 kts 128°
2026-05-05 09:39 42.29996 -70.73788 9918 ft 294 kts 147°
2026-05-05 09:39 42.28241 -70.72447 10646 ft 291 kts 165°
2026-05-05 09:39 42.26252 -70.71934 11250 ft 292 kts 184°
2026-05-05 09:39 42.24241 -70.72231 11990 ft 292 kts 194°
2026-05-05 09:40 42.22245 -70.72802 12777 ft 294 kts 202°
2026-05-05 09:40 42.20436 -70.74052 13529 ft 293 kts 219°
2026-05-05 09:40 42.19000 -70.76015 14115 ft 301 kts 236°
2026-05-05 09:40 42.18059 -70.78630 14262 ft 323 kts 254°
2026-05-05 09:41 42.17623 -70.81701 14424 ft 343 kts 259°
2026-05-05 09:41 42.17206 -70.84913 14925 ft 351 kts 259°
2026-05-05 09:41 42.16773 -70.88169 15588 ft 355 kts 259°
2026-05-05 09:41 42.16337 -70.91406 15914 ft 355 kts 259°
2026-05-05 09:42 42.15895 -70.94694 16020 ft 363 kts 259°
2026-05-05 09:42 42.15510 -70.98146 16037 ft 379 kts 261°
2026-05-05 09:42 42.15191 -71.01695 16649 ft 379 kts 262°
2026-05-05 09:42 42.14911 -71.05190 17617 ft 374 kts 263°
2026-05-05 09:43 42.14637 -71.08672 18329 ft 374 kts 263°
2026-05-05 09:43 42.14352 -71.12164 18882 ft 377 kts 263°
2026-05-05 09:43 42.14049 -71.15693 19398 ft 380 kts 263°
2026-05-05 09:43 42.13733 -71.19242 19892 ft 383 kts 263°
2026-05-05 09:44 42.13409 -71.22830 20380 ft 387 kts 263°
2026-05-05 09:44 42.13079 -71.26439 20869 ft 390 kts 263°
2026-05-05 09:44 42.12741 -71.30078 21362 ft 394 kts 263°
2026-05-05 09:44 42.12398 -71.33749 21857 ft 397 kts 263°
2026-05-05 09:45 42.12051 -71.37459 22340 ft 401 kts 263°
2026-05-05 09:45 42.11706 -71.41193 22799 ft 404 kts 263°
2026-05-05 09:45 42.11362 -71.44966 22937 ft 406 kts 263°
2026-05-05 09:45 42.11015 -71.48735 22932 ft 406 kts 263°
2026-05-05 09:46 42.10667 -71.52506 22945 ft 406 kts 263°
2026-05-05 09:46 42.10316 -71.56288 22947 ft 406 kts 263°
2026-05-05 09:46 42.09966 -71.60016 22941 ft 407 kts 263°
2026-05-05 09:46 42.09608 -71.63795 22944 ft 407 kts 263°
2026-05-05 09:47 42.09247 -71.67582 22941 ft 407 kts 262°
2026-05-05 09:47 42.08659 -71.71307 22941 ft 408 kts 253°
2026-05-05 09:47 42.07611 -71.74854 22941 ft 409 kts 246°
2026-05-05 09:47 42.06401 -71.78316 22942 ft 409 kts 246°
2026-05-05 09:48 42.05198 -71.81782 22941 ft 409 kts 246°
2026-05-05 09:48 42.04000 -71.85251 22944 ft 409 kts 246°
2026-05-05 09:48 42.02805 -71.88721 22943 ft 409 kts 246°
2026-05-05 09:48 42.01611 -71.92191 22949 ft 409 kts 246°
2026-05-05 09:49 42.00418 -71.95657 22943 ft 409 kts 246°
2026-05-05 09:49 41.99224 -71.99120 22924 ft 409 kts 246°
2026-05-05 09:49 41.98025 -72.02584 22924 ft 409 kts 245°
2026-05-05 09:49 41.96823 -72.06043 22926 ft 409 kts 245°
2026-05-05 09:50 41.96024 -72.08334 22928 ft 409 kts 245°
2026-05-05 09:50 41.94816 -72.11783 22924 ft 409 kts 245°
2026-05-05 09:50 41.93606 -72.15240 22928 ft 409 kts 245°
2026-05-05 09:50 41.92395 -72.18699 22929 ft 409 kts 245°
2026-05-05 09:51 41.91182 -72.22156 22929 ft 409 kts 245°
2026-05-05 09:51 41.89970 -72.25615 22924 ft 409 kts 245°
2026-05-05 09:51 41.88758 -72.29069 22923 ft 409 kts 245°
2026-05-05 09:51 41.87553 -72.32503 22927 ft 409 kts 245°
2026-05-05 09:52 41.86333 -72.35968 22933 ft 409 kts 245°
2026-05-05 09:52 41.85118 -72.39412 22906 ft 408 kts 245°
2026-05-05 09:52 41.83898 -72.42863 22909 ft 408 kts 245°
2026-05-05 09:52 41.82683 -72.46300 22909 ft 409 kts 245°
2026-05-05 09:53 41.81466 -72.49744 22908 ft 409 kts 245°
2026-05-05 09:53 41.80247 -72.53191 22907 ft 409 kts 245°
2026-05-05 09:53 41.79028 -72.56634 22906 ft 409 kts 244°
2026-05-05 09:53 41.77809 -72.60074 22907 ft 409 kts 244°
2026-05-05 09:54 41.76588 -72.63515 22914 ft 409 kts 245°
2026-05-05 09:54 41.75367 -72.66955 22913 ft 409 kts 244°
2026-05-05 09:54 41.74158 -72.70343 22913 ft 409 kts 244°
2026-05-05 09:54 41.72931 -72.73776 22912 ft 409 kts 244°
2026-05-05 09:55 41.71702 -72.77210 22912 ft 408 kts 244°
2026-05-05 09:55 41.70477 -72.80639 22901 ft 409 kts 244°
2026-05-05 09:55 41.69251 -72.84069 22903 ft 409 kts 244°
2026-05-05 09:55 41.68024 -72.87498 22912 ft 409 kts 244°
2026-05-05 09:56 41.66798 -72.90927 22910 ft 409 kts 244°
2026-05-05 09:56 41.65566 -72.94363 22911 ft 409 kts 244°
2026-05-05 09:56 41.64333 -72.97797 22924 ft 410 kts 244°
2026-05-05 09:56 41.63097 -73.01210 22929 ft 404 kts 244°
2026-05-05 09:57 41.61864 -73.04592 22938 ft 407 kts 244°
2026-05-05 09:57 41.60627 -73.08011 22936 ft 410 kts 244°
2026-05-05 09:57 41.59389 -73.11442 22941 ft 411 kts 244°
2026-05-05 09:57 41.58152 -73.14880 22956 ft 411 kts 244°
2026-05-05 09:58 41.56917 -73.18287 22949 ft 404 kts 244°
2026-05-05 09:58 41.55695 -73.21645 22953 ft 401 kts 244°
2026-05-05 09:58 41.54468 -73.25018 22940 ft 407 kts 244°
2026-05-05 09:58 41.53243 -73.28384 22948 ft 410 kts 244°
2026-05-05 09:59 41.51979 -73.31850 22954 ft 410 kts 244°
2026-05-05 09:59 41.50749 -73.35223 22950 ft 410 kts 244°
2026-05-05 09:59 41.49503 -73.38637 22930 ft 410 kts 244°
2026-05-05 09:59 41.48256 -73.42062 22926 ft 410 kts 244°
2026-05-05 10:00 41.47014 -73.45477 22922 ft 409 kts 244°
2026-05-05 10:00 41.45769 -73.48895 22925 ft 410 kts 244°
2026-05-05 10:00 41.44517 -73.52311 22788 ft 413 kts 244°
2026-05-05 10:00 41.43252 -73.55751 22455 ft 411 kts 244°
2026-05-05 10:01 41.42004 -73.59141 21773 ft 405 kts 243°
2026-05-05 10:01 41.40772 -73.62484 21133 ft 399 kts 243°
2026-05-05 10:01 41.39559 -73.65772 20537 ft 393 kts 243°
2026-05-05 10:01 41.38341 -73.68995 19922 ft 387 kts 239°
2026-05-05 10:02 41.36676 -73.71750 19357 ft 381 kts 223°
2026-05-05 10:02 41.34474 -73.73665 18781 ft 379 kts 206°
2026-05-05 10:02 41.31937 -73.74563 18174 ft 381 kts 189°
2026-05-05 10:02 41.29281 -73.74337 17498 ft 386 kts 171°
2026-05-05 10:03 41.26793 -73.72994 16890 ft 391 kts 153°
2026-05-05 10:03 41.24534 -73.70987 16288 ft 389 kts 150°
2026-05-05 10:03 41.22335 -73.68996 15680 ft 386 kts 150°
2026-05-05 10:03 41.20124 -73.66994 15067 ft 383 kts 150°
2026-05-05 10:04 41.17920 -73.65016 14416 ft 381 kts 152°
2026-05-05 10:04 41.15565 -73.63482 13764 ft 375 kts 164°
2026-05-05 10:04 41.13055 -73.62664 13039 ft 369 kts 176°
2026-05-05 10:04 41.10518 -73.62566 12394 ft 361 kts 188°
2026-05-05 10:05 41.08066 -73.63133 11682 ft 356 kts 199°
2026-05-05 10:05 41.05782 -73.64319 11161 ft 346 kts 211°
2026-05-05 10:05 41.03803 -73.65954 11069 ft 326 kts 218°
2026-05-05 10:05 41.01969 -73.67612 10919 ft 312 kts 217°
2026-05-05 10:06 41.00177 -73.69121 10806 ft 299 kts 216°
2026-05-05 10:06 40.98467 -73.70528 10585 ft 281 kts 216°
2026-05-05 10:06 40.96839 -73.71881 10157 ft 271 kts 217°
2026-05-05 10:06 40.95260 -73.73195 9913 ft 261 kts 217°
2026-05-05 10:07 40.93774 -73.74422 9666 ft 242 kts 217°
2026-05-05 10:07 40.92415 -73.75623 9405 ft 231 kts 228°
2026-05-05 10:07 40.91549 -73.77381 8826 ft 232 kts 256°
2026-05-05 10:07 40.91527 -73.79517 8271 ft 237 kts 281°
2026-05-05 10:08 40.92104 -73.81565 7821 ft 242 kts 301°
2026-05-05 10:08 40.93356 -73.83087 7420 ft 249 kts 320°
2026-05-05 10:08 40.94979 -73.83945 7035 ft 260 kts 347°
2026-05-05 10:08 40.96800 -73.83648 6660 ft 273 kts 14°
2026-05-05 10:09 40.98457 -73.82262 5942 ft 297 kts 42°
2026-05-05 10:09 40.99516 -73.79870 5141 ft 317 kts 74°
2026-05-05 10:09 40.99577 -73.76932 4282 ft 327 kts 106°
2026-05-05 10:09 40.98557 -73.74309 3400 ft 315 kts 139°
2026-05-05 10:10 40.96843 -73.72827 2928 ft 278 kts 167°
2026-05-05 10:10 40.95080 -73.72465 2773 ft 239 kts 189°
2026-05-05 10:10 40.93575 -73.72902 2660 ft 210 kts 208°
2026-05-05 10:10 40.92396 -73.73874 2548 ft 194 kts 224°
2026-05-05 10:11 40.91403 -73.74998 2445 ft 182 kts 224°
2026-05-05 10:11 40.90464 -73.76046 2339 ft 171 kts 224°
2026-05-05 10:11 40.89571 -73.77043 2246 ft 166 kts 224°
2026-05-05 10:11 40.88701 -73.78017 2141 ft 159 kts 224°
2026-05-05 10:12 40.87893 -73.78918 2071 ft 148 kts 224°
2026-05-05 10:12 40.87116 -73.79776 1991 ft 144 kts 223°
2026-05-05 10:12 40.86318 -73.80538 1815 ft 140 kts 219°
2026-05-05 10:12 40.85517 -73.81247 1641 ft 138 kts 218°
2026-05-05 10:13 40.84717 -73.81933 1457 ft 136 kts 217°
2026-05-05 10:13 40.83916 -73.82608 1262 ft 136 kts 216°
2026-05-05 10:13 40.83119 -73.83271 1072 ft 135 kts 216°
2026-05-05 10:13 40.82324 -73.83930 906 ft 136 kts 215°
2026-05-05 10:14 40.81525 -73.84595 729 ft 135 kts 214°
2026-05-05 10:14 40.80732 -73.85252 566 ft 134 kts 213°
2026-05-05 10:14 40.79930 -73.85909 357 ft 135 kts 212°
2026-05-05 10:14 40.79128 -73.86573 202 ft 137 kts 212°
2026-05-05 10:15 40.78328 -73.87247 44 ft 136 kts 211°
2026-05-05 10:15 40.77586 -73.87862 24 ft 101 kts 212°
2026-05-05 10:15 40.77236 -73.88142 23 ft 30 kts 215°
2026-05-05 10:15 40.77113 -73.88240 25 ft 13 kts 189°
2026-05-05 10:16 40.77052 -73.88187 26 ft 8 kts 108°
2026-05-05 10:16 40.77092 -73.88123 23 ft 14 kts 30°
2026-05-05 10:16 40.77187 -73.88039 21 ft 17 kts 32°
2026-05-05 10:16 40.77287 -73.87959 21 ft 17 kts 32°
2026-05-05 10:17 40.77385 -73.87877 21 ft 16 kts 32°
2026-05-05 10:17 40.77481 -73.87799 21 ft 16 kts 32°
2026-05-05 10:17 40.77521 -73.87766 21 ft 0 kts 32°
2026-05-05 10:18 40.77542 -73.87727 21 ft 10 kts 80°
2026-05-05 10:18 40.77492 -73.87593 20 ft 16 kts 121°
2026-05-05 10:19 40.77443 -73.87477 20 ft 15 kts 107°
2026-05-05 10:19 40.77429 -73.87306 20 ft 27 kts 91°
2026-05-05 10:19 40.77381 -73.87129 20 ft 19 kts 134°
2026-05-05 10:19 40.77292 -73.87002 20 ft 19 kts 132°
2026-05-05 10:20 40.77217 -73.86893 20 ft 14 kts 129°
2026-05-05 10:20 40.77194 -73.86785 20 ft 12 kts 65°
2026-05-05 10:20 40.77248 -73.86709 20 ft 11 kts 42°
2026-05-05 10:20 40.77299 -73.86648 20 ft 3 kts 43°
2026-05-05 10:21 40.77311 -73.86631 21 ft 3 kts 51°
2026-05-05 10:21 40.77309 -73.86588 20 ft 4 kts 125°
2026-05-05 10:21 40.77297 -73.86570 21 ft 1 kts 132°
2026-05-05 10:21 40.77292 -73.86563 20 ft 1 kts 133°
2026-05-05 10:22 40.77290 -73.86561 20 ft 0 kts 133°